Terug naar catalogus

TIANYAN-16

ActiefMilitairSSO
NORAD 58502·PAYLOAD·🇨🇳 China
Deze satellietnaam is nog niet bevestigd door officiële bronnen.

Gelanceerd Dec 4, 2023 vanaf Jiuquan Satellite Launch Center

Loading…

Volgende Passages (komende 24 uur)

TLE

VersSource: Space-Track

Epoch: Sep 14, 2026, 23:02 UTC

1 58502U 23189A   26257.96008277  .00003711  00000-0  11531-3 0  9990
2 58502  97.4360 276.7959 0009129 304.1078  55.9298 15.33966053154975

Volg TIANYAN-16 in realtime met AllMySat

Download on the App Store